Weather History for Greenwood, SC

Change the Weather History Date:

Thursday, December 15, 2011

  Actual Average (KAND) Record (KAND)
Temperature  
Mean Temperature 56 °F -  
Max Temperature 69 °F 54 °F 74 °F (1948)
Min Temperature 42 °F 35 °F 15 °F (2010)
Degree Days  
Heating Degree Days 10    
Growing Degree Days 6 (Base 50)    
Moisture  
Dew Point 48 °F    
Average Humidity 83    
Maximum Humidity 100    
Minimum Humidity 57    
Precipitation  
Precipitation 0.00 in - - ()
Sea Level Pressure  
Sea Level Pressure 30.25 in    
Wind  
Wind Speed 5 mph (SW)    
Max Wind Speed 12 mph    
Max Gust Speed -    
Visibility 7 miles    
Events Fog    
Averages and records for this station are not official NWS values.
T = Trace of Precipitation, MM = Missing Value Source: NWS Daily Summary

Daily Weather History Graph

Daily Weather History Graph

Search for Another Location

Airport:

Trip Planner

Search our weather history database for the weather conditions in past years. The results will help you decide how hot, cold, wet, or windy it might be!

Date:

Astronomy

Dec. 15, 2011 Rise Set
Actual Time 7:27 AM EST 5:20 PM EST
Civil Twilight 6:59 AM EST 5:48 PM EST
Nautical Twilight 6:27 AM EST 6:19 PM EST
Astronomical Twilight 5:57 AM EST 6:50 PM EST
Moon 10:33 PM EST (12/15) 10:52 AM EST (12/15)
Length of Visible Light 10h 48m
Length of Day
9h 53m
Waning Gibbous, 75% of the Moon is Illuminated
Dec 15
Waning Gibbous
Dec 17
Last Quarter
Dec 24
New
Jan 1
First Quarter
Jan 9
Full

Hourly Weather History & Observations

Time (EST) Temp. Windchill Dew Point Humidity Pressure Visibility Wind Dir Wind Speed Gust Speed Precip Events Conditions
12:56 AM 50.0 °F - 46.0 °F 86% 30.27 in 10.0 mi South 4.6 mph - N/A   Clear
1:56 AM 52.0 °F - 46.9 °F 83% 30.27 in 10.0 mi South 5.8 mph - N/A   Clear
2:56 AM 50.0 °F - 46.0 °F 86% 30.29 in 10.0 mi SW 6.9 mph - N/A   Clear
3:56 AM 50.0 °F - 46.9 °F 89% 30.28 in 10.0 mi SSW 5.8 mph - N/A   Clear
4:56 AM 48.9 °F - 46.9 °F 93% 30.28 in 10.0 mi SSW 5.8 mph - N/A   Clear
5:56 AM 46.9 °F - 45.0 °F 93% 30.28 in 5.0 mi Calm Calm - N/A   Clear
6:02 AM 44.6 °F - 44.6 °F 100% 30.29 in 1.8 mi Calm Calm - N/A   Clear
6:10 AM 44.6 °F - 44.6 °F 100% 30.29 in 0.2 mi Calm Calm - N/A Fog Fog
6:21 AM 46.4 °F - 46.4 °F 100% 30.29 in 1.0 mi Calm Calm - N/A   Clear
6:41 AM 44.6 °F - 42.8 °F 93% 30.29 in 0.2 mi Calm Calm - N/A Fog Fog
6:56 AM 43.0 °F - 42.1 °F 97% 30.30 in 1.2 mi Calm Calm - N/A   Clear
7:05 AM 44.6 °F - 42.8 °F 93% 30.29 in 0.2 mi Calm Calm - N/A Fog Fog
7:18 AM 42.8 °F - 42.8 °F 100% 30.30 in 1.0 mi Calm Calm - N/A   Clear
7:24 AM 44.6 °F 43.1 °F 42.8 °F 93% 30.30 in 3.0 mi SW 3.5 mph - N/A   Clear
7:56 AM 48.9 °F - 48.0 °F 97% 30.30 in 10.0 mi SW 5.8 mph - N/A   Clear
8:56 AM 53.1 °F - 50.0 °F 89% 30.30 in 10.0 mi SW 5.8 mph - N/A   Clear
9:56 AM 57.0 °F - 51.1 °F 81% 30.31 in 10.0 mi SW 10.4 mph - N/A   Mostly Cloudy
10:56 AM 59.0 °F - 52.0 °F 78% 30.30 in 10.0 mi SSW 5.8 mph - N/A   Overcast
12:56 PM 66.9 °F - 54.0 °F 63% 30.22 in 10.0 mi WSW 11.5 mph - N/A   Clear
1:56 PM 69.1 °F - 53.1 °F 57% 30.19 in 10.0 mi WSW 10.4 mph - N/A   Partly Cloudy
2:56 PM 68.0 °F - 53.1 °F 59% 30.18 in 10.0 mi SW 11.5 mph - N/A   Mostly Cloudy
3:56 PM 69.1 °F - 53.1 °F 57% 30.17 in 10.0 mi SSW 10.4 mph - N/A   Clear
4:56 PM 66.9 °F - 53.1 °F 61% 30.16 in 10.0 mi SSW 3.5 mph - N/A   Mostly Cloudy
6:56 PM 62.1 °F - 53.1 °F 72% 30.17 in 10.0 mi SSW 4.6 mph - N/A   Clear
7:56 PM 60.1 °F - 53.1 °F 78% 30.16 in 10.0 mi South 5.8 mph - N/A   Partly Cloudy
9:56 PM 63.0 °F - 54.0 °F 72% 30.18 in 10.0 mi SW 10.4 mph - N/A   Overcast
11:56 PM 63.0 °F - 54.0 °F 72% 30.18 in 10.0 mi SW 8.1 mph - N/A   Overcast